Powrót do katalogu

COSMOS 343

AktywnyMilitariaLEO
NORAD 4390·PAYLOAD·🇷🇺 Russia

Wystrzelony Apr 25, 1970 z Plesetsk Cosmodrome

Loading…

Następne Przeloty (najbliższe 24 godziny)

TLE

ŚwieżeSource: Space-Track

Epoka: Sep 14, 2026, 13:25 UTC

1  4390U 70036H   26257.55924200 -.00000001  00000-0  90915-4 0  9991
2  4390  74.0283 299.1420 0060280 222.4585 292.1830 12.60464216594356

Śledź COSMOS 343 w czasie rzeczywistym z AllMySat

Download on the App Store